"Sample Date","Sample Time","Sensor Name","Sample Value","Units","Flow Rate","Sample Interval","Sample Volume","Laser Status","Number Channels","Micron Size 0","Counts/Channel 0","Micron Size 1","Counts/Channel 1","Micron Size 2","Counts/Channel 2","Micron Size 3","Counts/Channel 3","Micron Size 4","Counts/Channel 4","Micron Size 5","Counts/Channel 5","Micron Size 6","Counts/Channel 6","Micron Size 7","Counts/Channel 7","Micron Size 8","Counts/Channel 8","Micron Size 9","Counts/Channel 9","Micron Size 10","Counts/Channel 10","Micron Size 11","Counts/Channel 11","Micron Size 12","Counts/Channel 12","Micron Size 13","Counts/Channel 13","Micron Size 14","Counts/Channel 14","Micron Size 15","Counts/Channel 15","Micron Size 16","Counts/Channel 16","Micron Size 17","Counts/Channel 17","Micron Size 18","Counts/Channel 18","Micron Size 19","Counts/Channel 19","Micron Size 20","Counts/Channel 20","Micron Size 21","Counts/Channel 21","Micron Size 22","Counts/Channel 22","Micron Size 23","Counts/Channel 23","Micron Size 24","Counts/Channel 24","Micron Size 25","Counts/Channel 25","Micron Size 26","Counts/Channel 26","Micron Size 27","Counts/Channel 27","Micron Size 28","Counts/Channel 28","Micron Size 29","Counts/Channel 29","Micron Size 30","Counts/Channel 30","Micron Size 31","Counts/Channel 31"
"07/11/06","20:00:02","AMMA06",79920.000,"cc",28291.498,6.00,2829.150,1,6,0.100,41139.000,0.200,33191.000,0.300,4990.000,0.500,413.000,1.000,187.000,5.000,0
"07/11/06","20:00:08","AMMA06",79537.000,"cc",28281.893,6.00,2828.190,1,6,0.100,40735.000,0.200,33261.000,0.300,5076.000,0.500,305.000,1.000,160.000,5.000,0
"07/11/06","20:00:14","AMMA06",88340.000,"cc",28333.561,6.00,2833.356,1,6,0.100,43522.000,0.200,36979.000,0.300,7283.000,0.500,395.000,1.000,161.000,5.000,0
"07/11/06","20:00:20","AMMA06",89878.000,"cc",28374.215,6.00,2837.422,1,6,0.100,43671.000,0.200,37210.000,0.300,7659.000,0.500,886.000,1.000,452.000,5.000,0
"07/11/06","20:00:26","AMMA06",87876.000,"cc",28292.566,6.00,2829.257,1,6,0.100,43343.000,0.200,36225.000,0.300,7023.000,0.500,844.000,1.000,441.000,5.000,0
"07/11/06","20:00:32","AMMA06",82520.000,"cc",28304.297,6.00,2830.430,1,6,0.100,41599.000,0.200,34340.000,0.300,5794.000,0.500,513.000,1.000,274.000,5.000,0
"07/11/06","20:00:38","AMMA06",82541.000,"cc",28321.020,6.00,2832.102,1,6,0.100,42045.000,0.200,33839.000,0.300,5745.000,0.500,602.000,1.000,310.000,5.000,0
"07/11/06","20:00:44","AMMA06",80477.000,"cc",28281.539,6.00,2828.154,1,6,0.100,40551.000,0.200,33630.000,0.300,5463.000,0.500,532.000,1.000,301.000,5.000,0
"07/11/06","20:00:50","AMMA06",80013.000,"cc",28366.961,6.00,2836.696,1,6,0.100,40875.000,0.200,33286.000,0.300,5236.000,0.500,428.000,1.000,188.000,5.000,0
"07/11/06","20:00:56","AMMA06",80548.000,"cc",28320.203,6.00,2832.021,1,6,0.100,40642.000,0.200,33692.000,0.300,5466.000,0.500,502.000,1.000,246.000,5.000,0
"07/11/06","20:01:02","AMMA06",81023.000,"cc",28241.121,6.00,2824.112,1,6,0.100,40995.000,0.200,33531.000,0.300,5476.000,0.500,688.000,1.000,333.000,5.000,0
"07/11/06","20:01:08","AMMA06",81384.000,"cc",28351.557,6.00,2835.156,1,6,0.100,41354.000,0.200,33548.000,0.300,5563.000,0.500,629.000,1.000,290.000,5.000,0
"07/11/06","20:01:14","AMMA06",78926.000,"cc",28328.803,6.00,2832.880,1,6,0.100,40506.000,0.200,32773.000,0.300,5066.000,0.500,372.000,1.000,208.000,5.000,1.000
"07/11/06","20:01:20","AMMA06",80622.000,"cc",28316.127,6.00,2831.613,1,6,0.100,41323.000,0.200,33049.000,0.300,5417.000,0.500,546.000,1.000,287.000,5.000,0
"07/11/06","20:01:26","AMMA06",79656.000,"cc",28313.129,6.00,2831.313,1,6,0.100,40955.000,0.200,32946.000,0.300,5108.000,0.500,432.000,1.000,214.000,5.000,1.000
"07/11/06","20:01:32","AMMA06",80000.000,"cc",28257.432,6.00,2825.743,1,6,0.100,41327.000,0.200,32967.000,0.300,5104.000,0.500,424.000,1.000,178.000,5.000,0
"07/11/06","20:01:38","AMMA06",80061.000,"cc",28263.648,6.00,2826.365,1,6,0.100,41801.000,0.200,32400.000,0.300,5176.000,0.500,459.000,1.000,225.000,5.000,0
"07/11/06","20:01:44","AMMA06",81546.000,"cc",28368.426,6.00,2836.843,1,6,0.100,42450.000,0.200,32657.000,0.300,5438.000,0.500,685.000,1.000,316.000,5.000,0
"07/11/06","20:01:50","AMMA06",80689.000,"cc",28329.520,6.00,2832.952,1,6,0.100,42073.000,0.200,32501.000,0.300,5266.000,0.500,564.000,1.000,285.000,5.000,0
"07/11/06","20:01:56","AMMA06",79304.000,"cc",28311.016,6.00,2831.102,1,6,0.100,41625.000,0.200,31984.000,0.300,5035.000,0.500,468.000,1.000,192.000,5.000,0
"07/11/06","20:02:02","AMMA06",79805.000,"cc",28342.576,6.00,2834.258,1,6,0.100,42448.000,0.200,31736.000,0.300,4972.000,0.500,445.000,1.000,204.000,5.000,0
"07/11/06","20:02:08","AMMA06",79128.000,"cc",28298.902,6.00,2829.890,1,6,0.100,42192.000,0.200,31722.000,0.300,4705.000,0.500,353.000,1.000,156.000,5.000,0
"07/11/06","20:02:14","AMMA06",80973.000,"cc",28272.686,6.00,2827.269,1,6,0.100,42683.000,0.200,32194.000,0.300,5286.000,0.500,546.000,1.000,264.000,5.000,0
"07/11/06","20:02:20","AMMA06",80895.000,"cc",28308.289,6.00,2830.829,1,6,0.100,42944.000,0.200,31982.000,0.300,5106.000,0.500,589.000,1.000,274.000,5.000,0
"07/11/06","20:02:26","AMMA06",82319.000,"cc",28329.148,6.00,2832.915,1,6,0.100,43311.000,0.200,32190.000,0.300,5595.000,0.500,832.000,1.000,391.000,5.000,0
"07/11/06","20:02:32","AMMA06",81214.000,"cc",28311.295,6.00,2831.130,1,6,0.100,43192.000,0.200,31821.000,0.300,5238.000,0.500,635.000,1.000,328.000,5.000,0
"07/11/06","20:02:38","AMMA06",81128.000,"cc",28373.805,6.00,2837.381,1,6,0.100,43127.000,0.200,31784.000,0.300,5197.000,0.500,667.000,1.000,353.000,5.000,0
"07/11/06","20:02:44","AMMA06",81038.000,"cc",28328.180,6.00,2832.818,1,6,0.100,43313.000,0.200,31817.000,0.300,5078.000,0.500,556.000,1.000,274.000,5.000,0
"07/11/06","20:02:50","AMMA06",82012.000,"cc",28289.691,6.00,2828.969,1,6,0.100,43780.000,0.200,31876.000,0.300,5328.000,0.500,694.000,1.000,334.000,5.000,0
"07/11/06","20:02:56","AMMA06",87562.000,"cc",28303.490,6.00,2830.349,1,6,0.100,45178.000,0.200,33369.000,0.300,6861.000,0.500,1521.000,1.000,633.000,5.000,0
"07/11/06","20:03:02","AMMA06",85410.000,"cc",28340.068,6.00,2834.007,1,6,0.100,44725.000,0.200,32940.000,0.300,6071.000,0.500,1166.000,1.000,508.000,5.000,0
"07/11/06","20:03:08","AMMA06",82721.000,"cc",28275.244,6.00,2827.525,1,6,0.100,43892.000,0.200,32280.000,0.300,5490.000,0.500,737.000,1.000,322.000,5.000,0
"07/11/06","20:03:14","AMMA06",82883.000,"cc",28351.275,6.00,2835.128,1,6,0.100,43327.000,0.200,32651.000,0.300,5678.000,0.500,845.000,1.000,382.000,5.000,0
"07/11/06","20:03:20","AMMA06",82989.000,"cc",28304.014,6.00,2830.402,1,6,0.100,43424.000,0.200,32771.000,0.300,5565.000,0.500,797.000,1.000,432.000,5.000,0
"07/11/06","20:03:26","AMMA06",81513.000,"cc",28351.842,6.00,2835.184,1,6,0.100,42388.000,0.200,32729.000,0.300,5377.000,0.500,705.000,1.000,314.000,5.000,0
"07/11/06","20:03:32","AMMA06",82859.000,"cc",28378.145,6.00,2837.815,1,6,0.100,42976.000,0.200,32681.000,0.300,5828.000,0.500,922.000,1.000,452.000,5.000,0
"07/11/06","20:03:38","AMMA06",81156.000,"cc",28313.828,6.00,2831.383,1,6,0.100,42263.000,0.200,32836.000,0.300,5308.000,0.500,492.000,1.000,257.000,5.000,0
"07/11/06","20:03:44","AMMA06",82175.000,"cc",28312.553,6.00,2831.255,1,6,0.100,42657.000,0.200,32953.000,0.300,5595.000,0.500,638.000,1.000,332.000,5.000,0
"07/11/06","20:03:50","AMMA06",81751.000,"cc",28265.768,6.00,2826.577,1,6,0.100,42359.000,0.200,32808.000,0.300,5506.000,0.500,692.000,1.000,386.000,5.000,0
"07/11/06","20:03:56","AMMA06",82361.000,"cc",28351.094,6.00,2835.110,1,6,0.100,42705.000,0.200,32980.000,0.300,5592.000,0.500,718.000,1.000,366.000,5.000,0
"07/11/06","20:04:02","AMMA06",82204.000,"cc",28337.465,6.00,2833.747,1,6,0.100,42285.000,0.200,33440.000,0.300,5540.000,0.500,619.000,1.000,320.000,5.000,0
"07/11/06","20:04:08","AMMA06",80841.000,"cc",28276.607,6.00,2827.661,1,6,0.100,41364.000,0.200,33201.000,0.300,5466.000,0.500,538.000,1.000,271.000,5.000,1.000
"07/11/06","20:04:14","AMMA06",82734.000,"cc",28382.684,6.00,2838.269,1,6,0.100,42010.000,0.200,33894.000,0.300,5775.000,0.500,724.000,1.000,331.000,5.000,0
"07/11/06","20:04:20","AMMA06",82336.000,"cc",28285.688,6.00,2828.569,1,6,0.100,41720.000,0.200,33758.000,0.300,5802.000,0.500,706.000,1.000,350.000,5.000,0
"07/11/06","20:04:26","AMMA06",82785.000,"cc",28315.795,6.00,2831.580,1,6,0.100,41854.000,0.200,33799.000,0.300,5954.000,0.500,760.000,1.000,418.000,5.000,0
"07/11/06","20:04:32","AMMA06",81706.000,"cc",28340.926,6.00,2834.093,1,6,0.100,41309.000,0.200,33791.000,0.300,5693.000,0.500,605.000,1.000,308.000,5.000,0
"07/11/06","20:04:38","AMMA06",81416.000,"cc",28298.102,6.00,2829.810,1,6,0.100,41362.000,0.200,33747.000,0.300,5528.000,0.500,500.000,1.000,278.000,5.000,1.000
"07/11/06","20:04:44","AMMA06",83924.000,"cc",28293.783,6.00,2829.378,1,6,0.100,41866.000,0.200,34326.000,0.300,6299.000,0.500,950.000,1.000,483.000,5.000,0
"07/11/06","20:04:50","AMMA06",84356.000,"cc",28371.041,6.00,2837.104,1,6,0.100,42583.000,0.200,34180.000,0.300,6233.000,0.500,877.000,1.000,483.000,5.000,0
"07/11/06","20:04:56","AMMA06",81355.000,"cc",28304.707,6.00,2830.471,1,6,0.100,41373.000,0.200,34044.000,0.300,5282.000,0.500,444.000,1.000,212.000,5.000,0
"07/11/06","20:05:02","AMMA06",81702.000,"cc",28289.893,6.00,2828.990,1,6,0.100,41018.000,0.200,34054.000,0.300,5775.000,0.500,547.000,1.000,308.000,5.000,0
"07/11/06","20:05:08","AMMA06",82811.000,"cc",28269.020,6.00,2826.902,1,6,0.100,41857.000,0.200,33922.000,0.300,5883.000,0.500,793.000,1.000,356.000,5.000,0
"07/11/06","20:05:14","AMMA06",82758.000,"cc",28333.883,6.00,2833.388,1,6,0.100,41751.000,0.200,34053.000,0.300,5855.000,0.500,728.000,1.000,371.000,5.000,0
"07/11/06","20:05:20","AMMA06",82499.000,"cc",28331.840,6.00,2833.184,1,6,0.100,42225.000,0.200,33584.000,0.300,5618.000,0.500,713.000,1.000,359.000,5.000,0
"07/11/06","20:05:26","AMMA06",82147.000,"cc",28329.217,6.00,2832.922,1,6,0.100,41804.000,0.200,33684.000,0.300,5728.000,0.500,611.000,1.000,320.000,5.000,0
"07/11/06","20:05:32","AMMA06",80660.000,"cc",28312.955,6.00,2831.296,1,6,0.100,40936.000,0.200,33737.000,0.300,5281.000,0.500,446.000,1.000,260.000,5.000,0
"07/11/06","20:05:38","AMMA06",82059.000,"cc",28304.106,6.00,2830.411,1,6,0.100,41622.000,0.200,33868.000,0.300,5564.000,0.500,682.000,1.000,323.000,5.000,0
"07/11/06","20:05:44","AMMA06",81482.000,"cc",28332.565,6.00,2833.257,1,6,0.100,41277.000,0.200,33710.000,0.300,5541.000,0.500,629.000,1.000,325.000,5.000,0
"07/11/06","20:05:50","AMMA06",81064.000,"cc",28304.215,6.00,2830.422,1,6,0.100,40894.000,0.200,33990.000,0.300,5415.000,0.500,496.000,1.000,269.000,5.000,0
"07/11/06","20:05:56","AMMA06",82138.000,"cc",28358.984,6.00,2835.899,1,6,0.100,41733.000,0.200,33730.000,0.300,5668.000,0.500,676.000,1.000,331.000,5.000,0
"07/11/06","20:06:02","AMMA06",81683.000,"cc",28321.221,6.00,2832.122,1,6,0.100,41277.000,0.200,33888.000,0.300,5622.000,0.500,591.000,1.000,305.000,5.000,0
"07/11/06","20:06:08","AMMA06",81523.000,"cc",28329.697,6.00,2832.970,1,6,0.100,41175.000,0.200,34108.000,0.300,5441.000,0.500,514.000,1.000,285.000,5.000,0
"07/11/06","20:06:14","AMMA06",80904.000,"cc",28344.432,6.00,2834.443,1,6,0.100,40836.000,0.200,33826.000,0.300,5482.000,0.500,517.000,1.000,243.000,5.000,0
"07/11/06","20:06:20","AMMA06",81507.000,"cc",28260.371,6.00,2826.037,1,6,0.100,41313.000,0.200,33760.000,0.300,5578.000,0.500,563.000,1.000,293.000,5.000,0
"07/11/06","20:06:26","AMMA06",81276.000,"cc",28288.854,6.00,2828.886,1,6,0.100,41049.000,0.200,34058.000,0.300,5476.000,0.500,476.000,1.000,217.000,5.000,0
"07/11/06","20:06:32","AMMA06",81167.000,"cc",28359.643,6.00,2835.964,1,6,0.100,41303.000,0.200,33867.000,0.300,5356.000,0.500,414.000,1.000,227.000,5.000,0
"07/11/06","20:06:38","AMMA06",81455.000,"cc",28353.471,6.00,2835.347,1,6,0.100,41099.000,0.200,34074.000,0.300,5546.000,0.500,470.000,1.000,266.000,5.000,0
"07/11/06","20:06:44","AMMA06",81648.000,"cc",28276.451,6.00,2827.645,1,6,0.100,41186.000,0.200,34116.000,0.300,5501.000,0.500,566.000,1.000,279.000,5.000,0
"07/11/06","20:06:50","AMMA06",81540.000,"cc",28319.551,6.00,2831.955,1,6,0.100,41334.000,0.200,33928.000,0.300,5480.000,0.500,540.000,1.000,258.000,5.000,0
"07/11/06","20:06:56","AMMA06",81995.000,"cc",28313.690,6.00,2831.369,1,6,0.100,41574.000,0.200,33849.000,0.300,5568.000,0.500,717.000,1.000,287.000,5.000,0
"07/11/06","20:07:02","AMMA06",81524.000,"cc",28341.063,6.00,2834.106,1,6,0.100,41555.000,0.200,33844.000,0.300,5346.000,0.500,516.000,1.000,263.000,5.000,0
"07/11/06","20:07:08","AMMA06",84647.000,"cc",28329.859,6.00,2832.986,1,6,0.100,42895.000,0.200,34137.000,0.300,6192.000,0.500,941.000,1.000,482.000,5.000,0
"07/11/06","20:07:14","AMMA06",82370.000,"cc",28308.709,6.00,2830.871,1,6,0.100,42430.000,0.200,32905.000,0.300,5856.000,0.500,802.000,1.000,377.000,5.000,0
"07/11/06","20:07:20","AMMA06",81130.000,"cc",28317.174,6.00,2831.718,1,6,0.100,42109.000,0.200,32735.000,0.300,5360.000,0.500,636.000,1.000,290.000,5.000,0
"07/11/06","20:07:26","AMMA06",84866.000,"cc",28283.959,6.00,2828.396,1,6,0.100,43482.000,0.200,33683.000,0.300,6152.000,0.500,1026.000,1.000,523.000,5.000,0
"07/11/06","20:07:32","AMMA06",81679.000,"cc",28279.772,6.00,2827.977,1,6,0.100,42486.000,0.200,32916.000,0.300,5413.000,0.500,601.000,1.000,263.000,5.000,0
"07/11/06","20:07:38","AMMA06",81824.000,"cc",28321.748,6.00,2832.175,1,6,0.100,42848.000,0.200,32796.000,0.300,5313.000,0.500,576.000,1.000,291.000,5.000,0
"07/11/06","20:07:44","AMMA06",81245.000,"cc",28367.699,6.00,2836.770,1,6,0.100,42206.000,0.200,32794.000,0.300,5377.000,0.500,584.000,1.000,284.000,5.000,0
"07/11/06","20:07:50","AMMA06",80488.000,"cc",28344.117,6.00,2834.412,1,6,0.100,42188.000,0.200,32267.000,0.300,5221.000,0.500,573.000,1.000,239.000,5.000,0
"07/11/06","20:07:56","AMMA06",81004.000,"cc",28242.041,6.00,2824.204,1,6,0.100,42396.000,0.200,32337.000,0.300,5370.000,0.500,618.000,1.000,283.000,5.000,0
"07/11/06","20:08:02","AMMA06",79895.000,"cc",28267.908,6.00,2826.791,1,6,0.100,42008.000,0.200,32265.000,0.300,4994.000,0.500,408.000,1.000,220.000,5.000,0
"07/11/06","20:08:08","AMMA06",80443.000,"cc",28338.201,6.00,2833.820,1,6,0.100,42372.000,0.200,32428.000,0.300,5014.000,0.500,409.000,1.000,220.000,5.000,0
"07/11/06","20:08:14","AMMA06",80581.000,"cc",28337.867,6.00,2833.787,1,6,0.100,42570.000,0.200,32275.000,0.300,5041.000,0.500,472.000,1.000,223.000,5.000,0
"07/11/06","20:08:20","AMMA06",83229.000,"cc",28297.680,6.00,2829.768,1,6,0.100,43117.000,0.200,32797.000,0.300,5938.000,0.500,913.000,1.000,464.000,5.000,0
"07/11/06","20:08:26","AMMA06",81264.000,"cc",28293.943,6.00,2829.395,1,6,0.100,42454.000,0.200,32621.000,0.300,5357.000,0.500,563.000,1.000,269.000,5.000,0
"07/11/06","20:08:32","AMMA06",80901.000,"cc",28317.387,6.00,2831.739,1,6,0.100,42181.000,0.200,32721.000,0.300,5231.000,0.500,527.000,1.000,241.000,5.000,0
"07/11/06","20:08:38","AMMA06",81181.000,"cc",28325.545,6.00,2832.555,1,6,0.100,42588.000,0.200,32576.000,0.300,5276.000,0.500,519.000,1.000,222.000,5.000,0
"07/11/06","20:08:44","AMMA06",81087.000,"cc",28333.631,6.00,2833.363,1,6,0.100,42020.000,0.200,33198.000,0.300,5129.000,0.500,498.000,1.000,242.000,5.000,0
"07/11/06","20:08:50","AMMA06",82281.000,"cc",28269.576,6.00,2826.958,1,6,0.100,42477.000,0.200,33158.000,0.300,5615.000,0.500,691.000,1.000,340.000,5.000,0
"07/11/06","20:08:56","AMMA06",82830.000,"cc",28351.566,6.00,2835.157,1,6,0.100,42552.000,0.200,33228.000,0.300,5815.000,0.500,843.000,1.000,392.000,5.000,0
"07/11/06","20:09:02","AMMA06",81795.000,"cc",28329.863,6.00,2832.987,1,6,0.100,42185.000,0.200,33154.000,0.300,5525.000,0.500,637.000,1.000,294.000,5.000,0
"07/11/06","20:09:08","AMMA06",81759.000,"cc",28289.664,6.00,2828.967,1,6,0.100,41976.000,0.200,33454.000,0.300,5417.000,0.500,626.000,1.000,286.000,5.000,0
"07/11/06","20:09:14","AMMA06",83089.000,"cc",28326.627,6.00,2832.663,1,6,0.100,42234.000,0.200,33754.000,0.300,5864.000,0.500,849.000,1.000,388.000,5.000,0
"07/11/06","20:09:20","AMMA06",83972.000,"cc",28336.168,6.00,2833.617,1,6,0.100,42399.000,0.200,33831.000,0.300,6284.000,0.500,1003.000,1.000,455.000,5.000,0
"07/11/06","20:09:26","AMMA06",82816.000,"cc",28305.398,6.00,2830.540,1,6,0.100,42185.000,0.200,33707.000,0.300,5827.000,0.500,739.000,1.000,358.000,5.000,0
"07/11/06","20:09:32","AMMA06",85887.000,"cc",28345.172,6.00,2834.517,1,6,0.100,43763.000,0.200,34756.000,0.300,6122.000,0.500,852.000,1.000,394.000,5.000,0
"07/11/06","20:09:38","AMMA06",81707.000,"cc",28317.768,6.00,2831.777,1,6,0.100,41679.000,0.200,33869.000,0.300,5427.000,0.500,496.000,1.000,236.000,5.000,0
"07/11/06","20:09:44","AMMA06",84538.000,"cc",28311.168,6.00,2831.117,1,6,0.100,42777.000,0.200,34485.000,0.300,6096.000,0.500,811.000,1.000,369.000,5.000,0
"07/11/06","20:09:50","AMMA06",84247.000,"cc",28310.072,6.00,2831.007,1,6,0.100,41813.000,0.200,34949.000,0.300,6136.000,0.500,897.000,1.000,452.000,5.000,0
"07/11/06","20:09:56","AMMA06",90501.000,"cc",28312.361,6.00,2831.236,1,6,0.100,45875.000,0.200,35921.000,0.300,6862.000,0.500,1199.000,1.000,642.000,5.000,2.000
"07/11/06","20:10:02","AMMA06",84066.000,"cc",28332.371,6.00,2833.237,1,6,0.100,41744.000,0.200,34889.000,0.300,6195.000,0.500,816.000,1.000,422.000,5.000,0
"07/11/06","20:10:08","AMMA06",87301.000,"cc",28304.576,6.00,2830.458,1,6,0.100,43666.000,0.200,35088.000,0.300,6790.000,0.500,1199.000,1.000,558.000,5.000,0
"07/11/06","20:10:14","AMMA06",86138.000,"cc",28247.986,6.00,2824.799,1,6,0.100,43783.000,0.200,35215.000,0.300,6021.000,0.500,719.000,1.000,400.000,5.000,0
"07/11/06","20:10:20","AMMA06",81586.000,"cc",28329.613,6.00,2832.961,1,6,0.100,41740.000,0.200,33750.000,0.300,5395.000,0.500,452.000,1.000,249.000,5.000,0
"07/11/06","20:10:26","AMMA06",82831.000,"cc",28379.811,6.00,2837.981,1,6,0.100,42595.000,0.200,33786.000,0.300,5601.000,0.500,576.000,1.000,273.000,5.000,0
"07/11/06","20:10:32","AMMA06",86761.000,"cc",28322.992,6.00,2832.299,1,6,0.100,43635.000,0.200,34585.000,0.300,6792.000,0.500,1200.000,1.000,549.000,5.000,0
"07/11/06","20:10:38","AMMA06",88366.000,"cc",28290.336,6.00,2829.034,1,6,0.100,44989.000,0.200,34486.000,0.300,6882.000,0.500,1412.000,1.000,597.000,5.000,0
"07/11/06","20:10:44","AMMA06",83304.000,"cc",28309.971,6.00,2830.997,1,6,0.100,42582.000,0.200,33690.000,0.300,5837.000,0.500,808.000,1.000,387.000,5.000,0
"07/11/06","20:10:50","AMMA06",90742.000,"cc",28341.795,6.00,2834.180,1,6,0.100,48856.000,0.200,34730.000,0.300,5929.000,0.500,849.000,1.000,378.000,5.000,0
"07/11/06","20:10:56","AMMA06",86803.000,"cc",28251.768,6.00,2825.177,1,6,0.100,45896.000,0.200,34358.000,0.300,5560.000,0.500,643.000,1.000,346.000,5.000,0
"07/11/06","20:11:02","AMMA06",82442.000,"cc",28239.522,6.00,2823.952,1,6,0.100,42397.000,0.200,33610.000,0.300,5536.000,0.500,606.000,1.000,293.000,5.000,0
"07/11/06","20:11:08","AMMA06",81476.000,"cc",28328.217,6.00,2832.822,1,6,0.100,41833.000,0.200,33384.000,0.300,5402.000,0.500,590.000,1.000,267.000,5.000,0
"07/11/06","20:11:14","AMMA06",83528.000,"cc",28380.668,6.00,2838.067,1,6,0.100,42721.000,0.200,33604.000,0.300,5973.000,0.500,831.000,1.000,399.000,5.000,0
"07/11/06","20:11:20","AMMA06",80930.000,"cc",28369.713,6.00,2836.971,1,6,0.100,41603.000,0.200,33109.000,0.300,5446.000,0.500,527.000,1.000,244.000,5.000,1.000
"07/11/06","20:11:26","AMMA06",82550.000,"cc",28299.795,6.00,2829.980,1,6,0.100,42281.000,0.200,33350.000,0.300,5793.000,0.500,764.000,1.000,362.000,5.000,0
"07/11/06","20:11:32","AMMA06",83919.000,"cc",28320.648,6.00,2832.065,1,6,0.100,42755.000,0.200,33908.000,0.300,6020.000,0.500,822.000,1.000,414.000,5.000,0
"07/11/06","20:11:38","AMMA06",81728.000,"cc",28339.762,6.00,2833.976,1,6,0.100,41971.000,0.200,33291.000,0.300,5581.000,0.500,576.000,1.000,309.000,5.000,0
"07/11/06","20:11:44","AMMA06",81113.000,"cc",28257.272,6.00,2825.727,1,6,0.100,41686.000,0.200,33476.000,0.300,5314.000,0.500,433.000,1.000,204.000,5.000,0
"07/11/06","20:11:50","AMMA06",82427.000,"cc",28318.740,6.00,2831.874,1,6,0.100,42063.000,0.200,34063.000,0.300,5457.000,0.500,591.000,1.000,253.000,5.000,0
"07/11/06","20:11:56","AMMA06",81457.000,"cc",28309.596,6.00,2830.960,1,6,0.100,41690.000,0.200,33890.000,0.300,5270.000,0.500,415.000,1.000,192.000,5.000,0
"07/11/06","20:12:02","AMMA06",81647.000,"cc",28310.348,6.00,2831.035,1,6,0.100,41319.000,0.200,34206.000,0.300,5491.000,0.500,429.000,1.000,202.000,5.000,0
"07/11/06","20:12:08","AMMA06",81120.000,"cc",28366.053,6.00,2836.606,1,6,0.100,41147.000,0.200,33967.000,0.300,5328.000,0.500,480.000,1.000,198.000,5.000,0
"07/11/06","20:12:14","AMMA06",82141.000,"cc",28342.227,6.00,2834.223,1,6,0.100,41920.000,0.200,33625.000,0.300,5745.000,0.500,536.000,1.000,315.000,5.000,0
"07/11/06","20:12:20","AMMA06",82584.000,"cc",28306.758,6.00,2830.676,1,6,0.100,41618.000,0.200,34187.000,0.300,5807.000,0.500,633.000,1.000,339.000,5.000,0
"07/11/06","20:12:26","AMMA06",83660.000,"cc",28323.100,6.00,2832.310,1,6,0.100,41952.000,0.200,34257.000,0.300,6200.000,0.500,857.000,1.000,394.000,5.000,0
"07/11/06","20:12:32","AMMA06",83443.000,"cc",28313.984,6.00,2831.399,1,6,0.100,42202.000,0.200,34106.000,0.300,5991.000,0.500,735.000,1.000,409.000,5.000,0
"07/11/06","20:12:38","AMMA06",84025.000,"cc",28293.973,6.00,2829.398,1,6,0.100,42136.000,0.200,34548.000,0.300,6024.000,0.500,853.000,1.000,464.000,5.000,0
"07/11/06","20:12:44","AMMA06",81831.000,"cc",28361.850,6.00,2836.185,1,6,0.100,41411.000,0.200,33891.000,0.300,5700.000,0.500,543.000,1.000,286.000,5.000,0
"07/11/06","20:12:50","AMMA06",81793.000,"cc",28253.691,6.00,2825.369,1,6,0.100,41261.000,0.200,33820.000,0.300,5752.000,0.500,645.000,1.000,315.000,5.000,0
"07/11/06","20:12:56","AMMA06",81072.000,"cc",28309.313,6.00,2830.931,1,6,0.100,41196.000,0.200,33782.000,0.300,5384.000,0.500,471.000,1.000,239.000,5.000,0
"07/11/06","20:13:02","AMMA06",85546.000,"cc",28314.627,6.00,2831.463,1,6,0.100,42502.000,0.200,34846.000,0.300,6662.000,0.500,1008.000,1.000,528.000,5.000,0
"07/11/06","20:13:08","AMMA06",82839.000,"cc",28331.557,6.00,2833.156,1,6,0.100,41697.000,0.200,34369.000,0.300,5741.000,0.500,697.000,1.000,335.000,5.000,0
"07/11/06","20:13:14","AMMA06",83771.000,"cc",28315.674,6.00,2831.568,1,6,0.100,41569.000,0.200,34556.000,0.300,6269.000,0.500,934.000,1.000,443.000,5.000,0
"07/11/06","20:13:20","AMMA06",82817.000,"cc",28281.619,6.00,2828.162,1,6,0.100,41447.000,0.200,34155.000,0.300,6053.000,0.500,740.000,1.000,421.000,5.000,1.000
"07/11/06","20:13:26","AMMA06",81991.000,"cc",28292.654,6.00,2829.266,1,6,0.100,41301.000,0.200,34205.000,0.300,5578.000,0.500,593.000,1.000,314.000,5.000,0
"07/11/06","20:13:32","AMMA06",81902.000,"cc",28335.701,6.00,2833.570,1,6,0.100,41145.000,0.200,34359.000,0.300,5615.000,0.500,539.000,1.000,244.000,5.000,0
"07/11/06","20:13:38","AMMA06",82274.000,"cc",28367.734,6.00,2836.774,1,6,0.100,40826.000,0.200,34638.000,0.300,5848.000,0.500,629.000,1.000,333.000,5.000,0
"07/11/06","20:13:44","AMMA06",81509.000,"cc",28300.688,6.00,2830.069,1,6,0.100,40521.000,0.200,34392.000,0.300,5710.000,0.500,621.000,1.000,265.000,5.000,0
"07/11/06","20:13:50","AMMA06",82740.000,"cc",28298.602,6.00,2829.860,1,6,0.100,41117.000,0.200,34348.000,0.300,6146.000,0.500,715.000,1.000,414.000,5.000,0
"07/11/06","20:13:56","AMMA06",82843.000,"cc",28319.449,6.00,2831.945,1,6,0.100,41252.000,0.200,34795.000,0.300,5804.000,0.500,666.000,1.000,326.000,5.000,0
"07/11/06","20:14:02","AMMA06",82256.000,"cc",28322.527,6.00,2832.253,1,6,0.100,41070.000,0.200,34614.000,0.300,5750.000,0.500,531.000,1.000,291.000,5.000,0
"07/11/06","20:14:08","AMMA06",81776.000,"cc",28332.117,6.00,2833.212,1,6,0.100,40822.000,0.200,34675.000,0.300,5571.000,0.500,459.000,1.000,249.000,5.000,0
"07/11/06","20:14:14","AMMA06",81720.000,"cc",28322.596,6.00,2832.260,1,6,0.100,40690.000,0.200,34619.000,0.300,5671.000,0.500,502.000,1.000,238.000,5.000,0